Location: Newark
(25.0000°N, 73.5000°E)
Time: 21:22:27
(UTC+00:00)

Transit 2A Rocket - Pass Details

Date: 09 August 2021
Orbit: 586 x 916 km, 66.7° (Epoch: 16 September)

Event Time Altitude Azimuth Distance (km) Brightness Sun altitude
Rises 17:00:04 0° 332° (NNW) 3,420 9.2 -38.3°
Reaches altitude 10° 17:02:30 10° 329° (NNW) 2,518 8.4 -38.6°
Enters shadow 17:05:22 30° 321° (NW) 1,536 6.9 -39.1°
